This is the latest recevied weather packets stored in our database for station/object IK2ILW-4. If no packets are shown the sender has not sent any weather packets the latest 10 day(s).
| Time | Temp. | Humidity | Pressure | Rain* | Wind** | Luminosity | Snow |
|---|---|---|---|---|---|---|---|
| 1787561562 | 20° C | 72% | 1023.4 hPa | 0 mm | - | 722 W/m² | - |
| 1787561272 | 20° C | 72% | 1023.4 hPa | 0 mm | - | 701 W/m² | - |
| 1787560967 | 20° C | 72% | 1023.5 hPa | 0 mm | - | 635 W/m² | - |
| 1787560654 | 19.44° C | 72% | 1023.5 hPa | 0 mm | - | 626 W/m² | - |
| 1787560359 | 18.89° C | 74% | 1023.5 hPa | 0 mm | - | 626 W/m² | - |
| 1787560069 | 18.89° C | 75% | 1023.6 hPa | 0 mm | - | 584 W/m² | - |
| 1787559763 | 18.89° C | 75% | 1023.6 hPa | 0 mm | - | 582 W/m² | - |
| 1787559471 | 18.89° C | 76% | 1023.6 hPa | 0 mm | - | 563 W/m² | - |
| 1787559166 | 18.33° C | 75% | 1023.5 hPa | 0 mm | - | 548 W/m² | - |
| 1787558863 | 18.33° C | 75% | 1023.5 hPa | 0 mm | - | 540 W/m² | - |
| 1787558573 | 18.33° C | 75% | 1023.5 hPa | 0 mm | - | 515 W/m² | - |
| 1787558264 | 18.33° C | 73% | 1023.4 hPa | 0 mm | - | 510 W/m² | - |
| 1787557959 | 18.89° C | 75% | 1023.4 hPa | 0 mm | - | 492 W/m² | - |
| 1787557668 | 18.33° C | 75% | 1023.4 hPa | 0 mm | - | 483 W/m² | - |
| 1787557355 | 18.89° C | 73% | 1023.5 hPa | 0 mm | - | 475 W/m² | - |
| 1787557071 | 18.33° C | 75% | 1023.5 hPa | 0 mm | - | 457 W/m² | - |
| 1787556758 | 17.78° C | 76% | 1023.5 hPa | 0 mm | - | 441 W/m² | - |
| 1787556455 | 17.78° C | 75% | 1022.6 hPa | 0 mm | - | 434 W/m² | - |
| 1787556169 | 17.78° C | 75% | 1022.6 hPa | 0 mm | - | 417 W/m² | - |
| 1787555859 | 17.22° C | 78% | 1022.6 hPa | 0 mm | - | 403 W/m² | - |
| 1787555567 | 17.22° C | 77% | 1023.5 hPa | 0 mm | - | 392 W/m² | - |
| 1787555260 | 16.67° C | 77% | 1023.5 hPa | 0 mm | - | 373 W/m² | - |
| 1787554968 | 17.22° C | 77% | 1023.5 hPa | 0 mm | - | 359 W/m² | - |
| 1787554673 | 17.22° C | 77% | 1023.6 hPa | 0 mm | - | 350 W/m² | - |
| 1787554363 | 17.22° C | 77% | 1023.6 hPa | 0 mm | - | 339 W/m² | - |
* Rain since midnight (hover to see other rain measurements)
** Current wind speed in m/s (hover to see current wind gust speed)